Meteor 2-5 Rocket - Orbit

View from above orbital plane
View from above orbital plane
View from above satellite
View from above satellite

Ground track
Ground track

The orbit data is extracted from the following two-line orbital elements,

1 11608U 79095B   13141.79328117 -.00000046  00000-0 -35039-4 0  2870
2 11608 081.2146 214.1815 0054711 022.1651 117.2733 14.05945082721065
Epoch (UTC): 21 May 2013 19:02:19
Eccentricity: 0.0054711
inclination: 81.2146°
perigee height: 833 km
apogee height: 913 km
right ascension of ascending node: 214.1815°
argument of perigee: 22.1651°
revolutions per day: 14.05945082
mean anomaly at epoch: 117.2733°
orbit number at epoch: 72106

The dashed part of the orbit path shows where the satellite is in the earth's shadow,  

Developed and maintained by Chris Peat, Heavens-Above GmbH. Please read the updated FAQ before sending e-mail. Imprint. DLR